Back to catalog

ONEWEB-0177

AliveCommunicationsPO
NORAD 48074·PAYLOAD·🇬🇧 United Kingdom

Launched Mar 25, 2021 from Vostochny Cosmodrome

Loading…

Next Passes (next 24 hours)

TLE

FreshSource: CelesTrak SupGP

Epoch: Sep 14, 2026, 18:18 UTC

1 48074C 21025AJ  26257.76265463 -.00002399  00000+0 -65773-2 0  2575
2 48074  87.8913 302.4053 0001724 101.2597 276.7566 13.13468694    12

Track ONEWEB-0177 in real time with AllMySat

Download on the App Store